Location: Fort Wayne
(41.1310°N, 85.1290°W)
Time: 13:53:21
(UTC-04:00)

Amateur Radio Satellites - All Passes

Search period start: 30 September 2014 13:23
Search period end: 01 October 2014 13:23
Location: Fort Wayne, 41.1310°N, 85.1290°W

Satellite Date Start Highest point End Downlink Frequencies (MHz)
Time Altitude Azimuth
AO-Echo 30 Sep 13:28:28 13:30:04 12° 60° (ENE) 13:31:40 ?
JAS-1B 30 Sep 13:56:41 14:03:31 39° 68° (ENE) 14:09:24 435.800 - 435.900 CW/SSB
Oscar 19 30 Sep 14:06:36 14:11:42 60° 73° (ENE) 14:16:49 437.125 CW, 437.150 USB
TMSAT-1 30 Sep 14:10:08 14:10:43 10° 57° (ENE) 14:11:18 436.925 FM
ITAMSAT 1 30 Sep 14:17:15 14:21:49 33° 67° (ENE) 14:26:25 435.822 SSB
Uribyol 2 30 Sep 14:18:12 14:22:52 35° 68° (ENE) 14:27:35 436.500 FM
Oscar 16 30 Sep 14:47:37 14:52:42 55° 260° (W) 14:57:49 437.025 USB, Beacon 2401.1428
AO-27 30 Sep 14:54:48 14:59:57 74° 74° (ENE) 15:05:09 436.795 MHz FM
AO-7 30 Sep 14:59:28 15:04:30 18° 49° (NE) 15:09:31 29.400 - 29.500 MHz
AO-Echo 30 Sep 15:03:29 15:08:09 79° 257° (WSW) 15:12:54 ?
RS-15 30 Sep 15:03:46 15:11:01 20° 260° (W) 15:18:30 29.354 - 29.394 USB, Beacon 29.352 USB
Gurwin Techsat 1B 30 Sep 15:15:25 15:20:35 55° 72° (ENE) 15:25:46 435.225 FM
Saudisat 1A 30 Sep 15:23:29 15:27:53 89° 300° (WNW) 15:32:19 436.775 MHz
TMSAT-1 30 Sep 15:44:26 15:49:41 75° 74° (ENE) 15:55:00 436.925 FM
JAS-1B 30 Sep 15:46:58 15:54:07 39° 261° (W) 16:00:14 435.800 - 435.900 CW/SSB
Oscar 19 30 Sep 15:48:15 15:51:26 16° 269° (W) 15:54:38 437.125 CW, 437.150 USB
MaSat-1 30 Sep 15:56:45 16:00:03 42° 59° (ENE) 16:02:54 437.345 MHz
ITAMSAT 1 30 Sep 15:56:45 16:01:17 30° 264° (W) 16:05:50 435.822 SSB
Uribyol 2 30 Sep 15:57:58 16:02:22 28° 265° (W) 16:06:49 436.500 FM
Uosat F 30 Sep 16:24:37 16:28:56 30° 67° (ENE) 16:33:17 435.120 FM
AO-27 30 Sep 16:37:41 16:40:00 13° 270° (W) 16:42:20 436.795 MHz FM
AO-7 30 Sep 16:47:41 16:55:57 76° 69° (ENE) 17:04:14 29.400 - 29.500 MHz
Gurwin Techsat 1B 30 Sep 16:57:16 17:00:53 18° 268° (W) 17:04:30 435.225 FM
Saudisat 1A 30 Sep 17:05:49 17:08:06 14° 321° (NW) 17:10:24 436.775 MHz
JAS-2 30 Sep 17:19:16 17:22:40 18° 60° (ENE) 17:26:10 435.800 - 435.900 CW/SSB, 435.910 FM
TMSAT-1 30 Sep 17:27:44 17:30:10 13° 271° (W) 17:32:37 436.925 FM
Hamsat 30 Sep 17:40:51 17:43:44 18° 66° (ENE) 17:46:38 145.90 MHz
KITSAT 1 30 Sep 17:45:13 17:52:58 53° 112° (ESE) 18:00:44 435.175 FM
Uosat F 30 Sep 18:03:16 18:07:39 31° 263° (W) 18:12:05 435.120 FM
OPAL 30 Sep 18:08:35 18:13:15 35° 99° (E) 18:17:50 ?
Sapphire 30 Sep 18:18:25 18:22:01 18° 43° (NE) 18:25:36 437.095 MHz 1200 baud AX-25 AFSK
Oscar 10/S400 30 Sep 18:29:20 18:47:49 55° 163° (SSE) 19:51:24 145.825 - 145.975 CW/USB, Beacon 145.810 USB
AO-7 30 Sep 18:43:15 18:49:27 23° 267° (W) 18:55:41 29.400 - 29.500 MHz
PCSat 30 Sep 18:43:31 18:48:07 27° 49° (NE) 18:52:42 145.825 MHz
JAS-2 30 Sep 19:02:11 19:07:15 57° 260° (W) 19:12:34 435.800 - 435.900 CW/SSB, 435.910 FM
STRAND 1 30 Sep 19:11:15 19:13:07 12° 89° (E) 19:14:59 ?
Hamsat 30 Sep 19:15:16 19:19:22 42° 262° (W) 19:23:29 145.90 MHz
KITSAT 1 30 Sep 19:41:07 19:48:35 40° 313° (NW) 19:56:05 435.175 FM
OPAL 30 Sep 19:47:41 19:51:59 28° 296° (WNW) 19:56:14 ?
HO-68 30 Sep 19:53:10 19:56:57 15° 52° (NE) 20:00:44 435.675 MHz FM
Sapphire 30 Sep 20:00:41 20:06:09 84° 242° (WSW) 20:11:34 437.095 MHz 1200 baud AX-25 AFSK
SO-50 30 Sep 20:12:22 20:16:44 56° 118° (ESE) 20:21:14 436.795 FM
SO-67 30 Sep 20:14:18 20:17:41 58° 260° (W) 20:21:06 435.3500 MHz FM
PCSat 30 Sep 20:26:33 20:31:45 47° 247° (WSW) 20:36:54 145.825 MHz
UOSAT-12 30 Sep 20:46:43 20:47:37 11° 106° (ESE) 20:48:32 437.025 FM, 437.400 FM
STRAND 1 30 Sep 20:47:43 20:52:53 79° 285° (WNW) 20:58:01 ?
Oscar 11 30 Sep 21:32:21 21:35:16 18° 65° (ENE) 21:38:12 145.825 FM, Beacon 2401.500 USB
HO-68 30 Sep 21:36:22 21:43:28 76° 71° (ENE) 21:50:38 435.675 MHz FM
PANSAT 30 Sep 21:40:26 21:41:43 11° 173° (S) 21:43:01 not established
KITSAT 1 30 Sep 21:42:49 21:46:41 14° 340° (NNW) 21:50:33 435.175 FM
Sapphire 30 Sep 21:47:48 21:48:40 10° 259° (W) 21:49:33 437.095 MHz 1200 baud AX-25 AFSK
SO-50 30 Sep 21:54:17 21:57:39 20° 318° (NW) 22:01:06 436.795 FM
FUNcube-1 30 Sep 21:55:59 21:58:24 14° 63° (ENE) 22:00:50 145.950 - 145.970 MHz USB
UKube-1 30 Sep 21:59:58 22:04:06 46° 72° (ENE) 22:08:15 145.840 MHz, 145.915 MHz
Saudisat 1A 30 Sep 22:12:46 22:14:18 12° 36° (NE) 22:15:49 436.775 MHz
UOSAT-12 30 Sep 22:22:24 22:27:01 85° 303° (WNW) 22:31:46 437.025 FM, 437.400 FM
STRAND 1 30 Sep 22:30:15 22:31:12 11° 303° (WNW) 22:32:09 ?
ZACube-1 30 Sep 22:38:57 22:43:08 38° 71° (ENE) 22:47:25 437.345 MHz
ISS 30 Sep 23:04:43 23:07:56 51° 139° (SE) 23:11:11 145.800 FM
Oscar 11 30 Sep 23:06:58 23:11:07 43° 261° (W) 23:15:17 145.825 FM, Beacon 2401.500 USB
PANSAT 30 Sep 23:19:44 23:21:06 12° 186° (S) 23:22:29 not established
HO-68 30 Sep 23:26:56 23:31:50 20° 269° (W) 23:36:47 435.675 MHz FM
FUNcube-1 30 Sep 23:29:45 23:34:14 62° 259° (W) 23:38:49 145.950 - 145.970 MHz USB
UKube-1 30 Sep 23:37:55 23:40:32 16° 267° (W) 23:43:10 145.840 MHz, 145.915 MHz
KITSAT 1 30 Sep 23:44:02 23:46:32 12° 12° (NNE) 23:49:02 435.175 FM
Saudisat 1A 30 Sep 23:50:16 23:54:42 70° 56° (NE) 23:59:05 436.775 MHz
UOSAT-12 01 Oct 00:05:19 00:07:55 15° 322° (NW) 00:10:32 437.025 FM, 437.400 FM
ZACube-1 01 Oct 00:16:15 00:19:40 21° 267° (W) 00:23:07 437.345 MHz
AO-40 01 Oct 00:18:41 01:48:19 20° 227° (SW) 04:26:45 Beacon 2401.320
ISS 01 Oct 00:41:57 00:44:48 26° 337° (NNW) 00:47:39 145.800 FM
RS-15 01 Oct 01:08:54 01:12:44 12° 95° (E) 01:16:32 29.354 - 29.394 USB, Beacon 29.352 USB
Saudisat 1A 01 Oct 01:31:57 01:33:40 12° 252° (WSW) 01:35:23 436.775 MHz
KITSAT 1 01 Oct 01:38:29 01:45:18 29° 40° (NE) 01:52:03 435.175 FM
Oscar 19 01 Oct 02:19:10 02:23:02 21° 93° (E) 02:26:52 437.125 CW, 437.150 USB
ISS 01 Oct 02:20:35 02:22:22 14° 357° (N) 02:24:08 145.800 FM
ITAMSAT 1 01 Oct 02:32:32 02:33:57 11° 89° (E) 02:35:20 435.822 SSB
Uribyol 2 01 Oct 02:32:55 02:34:57 12° 89° (E) 02:36:59 436.500 FM
Oscar 16 01 Oct 02:59:22 03:04:25 53° 100° (E) 03:09:25 437.025 USB, Beacon 2401.1428
SO-50 01 Oct 03:06:07 03:06:55 10° 33° (NNE) 03:07:43 436.795 FM
AO-27 01 Oct 03:08:27 03:12:50 27° 95° (E) 03:17:12 436.795 MHz FM
AO-Echo 01 Oct 03:10:30 03:15:03 34° 97° (E) 03:19:42 ?
RS-15 01 Oct 03:11:55 03:22:48 67° 115° (ESE) 03:33:32 29.354 - 29.394 USB, Beacon 29.352 USB
JAS-1B 01 Oct 03:30:38 03:36:14 56° 101° (ESE) 03:42:18 435.800 - 435.900 CW/SSB
Gurwin Techsat 1B 01 Oct 03:32:25 03:36:31 22° 93° (E) 03:40:34 435.225 FM
KITSAT 1 01 Oct 03:33:27 03:41:33 79° 242° (WSW) 03:49:35 435.175 FM
ISS 01 Oct 03:57:31 04:00:02 20° 18° (NNE) 04:02:32 145.800 FM
Oscar 19 01 Oct 03:57:41 04:02:35 46° 290° (WNW) 04:07:26 437.125 CW, 437.150 USB
TMSAT-1 01 Oct 04:00:47 04:05:25 30° 96° (E) 04:10:01 436.925 FM
ITAMSAT 1 01 Oct 04:08:49 04:14:05 86° 285° (WNW) 04:19:18 435.822 SSB
Uribyol 2 01 Oct 04:09:45 04:15:00 79° 286° (WNW) 04:20:13 436.500 FM
Oscar 16 01 Oct 04:39:43 04:43:21 20° 297° (WNW) 04:46:58 437.025 USB, Beacon 2401.1428
SO-50 01 Oct 04:43:52 04:48:35 51° 53° (NE) 04:53:19 436.795 FM
AO-27 01 Oct 04:47:37 04:52:25 38° 291° (WNW) 04:57:12 436.795 MHz FM
AO-Echo 01 Oct 04:49:25 04:53:42 29° 292° (WNW) 04:58:05 ?
AO-7 01 Oct 04:50:23 04:56:47 24° 93° (E) 05:03:10 29.400 - 29.500 MHz
Gurwin Techsat 1B 01 Oct 05:11:37 05:16:41 46° 290° (WNW) 05:21:43 435.225 FM
UOSAT-12 01 Oct 05:13:30 05:16:00 14° 37° (NE) 05:18:28 437.025 FM, 437.400 FM
JAS-1B 01 Oct 05:22:33 05:26:34 20° 298° (WNW) 05:30:45 435.800 - 435.900 CW/SSB
OPAL 01 Oct 05:23:04 05:28:13 65° 71° (ENE) 05:33:24 ?
RS-15 01 Oct 05:25:41 05:35:48 41° 320° (NW) 05:45:59 29.354 - 29.394 USB, Beacon 29.352 USB
KITSAT 1 01 Oct 05:31:37 05:35:37 15° 261° (W) 05:39:38 435.175 FM
ISS 01 Oct 05:33:47 05:37:07 86° 34° (NE) 05:40:26 145.800 FM
MaSat-1 01 Oct 05:39:58 05:43:44 23° 106° (ESE) 05:47:24 437.345 MHz
TMSAT-1 01 Oct 05:40:34 05:45:20 35° 292° (WNW) 05:50:04 436.925 FM
ITAMSAT 1 01 Oct 05:50:59 05:52:45 12° 302° (WNW) 05:54:30 435.822 SSB
Uribyol 2 01 Oct 05:52:25 05:53:36 11° 303° (WNW) 05:54:46 436.500 FM
JAS-2 01 Oct 06:10:08 06:15:10 21° 92° (E) 06:20:32 435.800 - 435.900 CW/SSB, 435.910 FM
Uosat F 01 Oct 06:10:11 06:15:15 81° 104° (ESE) 06:20:17 435.120 FM
SO-50 01 Oct 06:25:17 06:28:48 20° 249° (WSW) 06:32:19 436.795 FM
STRAND 1 01 Oct 06:26:32 06:30:00 19° 62° (ENE) 06:33:30 ?
AO-7 01 Oct 06:41:58 06:50:14 73° 292° (WNW) 06:58:28 29.400 - 29.500 MHz
UOSAT-12 01 Oct 06:52:10 06:56:55 80° 57° (ENE) 07:01:35 437.025 FM, 437.400 FM
Hamsat 01 Oct 07:01:07 07:04:54 32° 96° (E) 07:08:39 145.90 MHz
OPAL 01 Oct 07:04:26 07:07:31 16° 267° (W) 07:10:36 ?
ISS 01 Oct 07:12:38 07:13:19 11° 232° (SW) 07:14:00 145.800 FM
MaSat-1 01 Oct 07:15:24 07:20:00 42° 300° (WNW) 07:24:24 437.345 MHz
RS-15 01 Oct 07:44:46 07:52:22 20° 353° (N) 08:00:04 29.354 - 29.394 USB, Beacon 29.352 USB
Uosat F 01 Oct 07:51:03 07:53:20 13° 301° (WNW) 07:55:37 435.120 FM
JAS-2 01 Oct 07:53:55 08:00:33 72° 287° (WNW) 08:07:57 435.800 - 435.900 CW/SSB, 435.910 FM
STRAND 1 01 Oct 08:03:46 08:08:45 55° 259° (W) 08:13:47 ?
UOSAT-12 01 Oct 08:34:51 08:36:22 11° 253° (WSW) 08:37:52 437.025 FM, 437.400 FM
AO-7 01 Oct 08:36:47 08:41:37 17° 312° (NW) 08:46:27 29.400 - 29.500 MHz
Hamsat 01 Oct 08:37:30 08:40:39 21° 293° (WNW) 08:43:47 145.90 MHz
Sapphire 01 Oct 09:03:03 09:04:57 12° 102° (ESE) 09:06:51 437.095 MHz 1200 baud AX-25 AFSK
HO-68 01 Oct 09:07:08 09:10:05 13° 88° (E) 09:13:01 435.675 MHz FM
SO-67 01 Oct 09:10:45 09:14:05 47° 285° (WNW) 09:17:24 435.3500 MHz FM
PCSat 01 Oct 09:26:06 09:30:12 22° 107° (ESE) 09:34:19 145.825 MHz
JAS-2 01 Oct 09:41:41 09:44:41 14° 303° (WNW) 09:47:48 435.800 - 435.900 CW/SSB, 435.910 FM
RS-15 01 Oct 10:00:39 10:09:53 29° 29° (NNE) 10:19:20 29.354 - 29.394 USB, Beacon 29.352 USB
Sapphire 01 Oct 10:42:09 10:47:33 88° 299° (WNW) 10:53:00 437.095 MHz 1200 baud AX-25 AFSK
HO-68 01 Oct 10:51:35 10:58:49 79° 105° (ESE) 11:06:01 435.675 MHz FM
Oscar 11 01 Oct 10:54:42 10:58:37 33° 97° (E) 11:02:30 145.825 FM, Beacon 2401.500 USB
PCSat 01 Oct 11:07:58 11:13:14 51° 304° (NW) 11:18:32 145.825 MHz
FUNcube-1 01 Oct 11:19:35 11:23:26 26° 95° (E) 11:27:10 145.950 - 145.970 MHz USB
UKube-1 01 Oct 11:24:02 11:28:26 88° 104° (ESE) 11:32:48 145.840 MHz, 145.915 MHz
ZACube-1 01 Oct 12:04:19 12:08:55 82° 102° (ESE) 12:13:21 437.345 MHz
RS-15 01 Oct 12:13:05 12:24:17 79° 56° (NE) 12:35:55 29.354 - 29.394 USB, Beacon 29.352 USB
Sapphire 01 Oct 12:28:27 12:31:46 16° 319° (NW) 12:35:07 437.095 MHz 1200 baud AX-25 AFSK
Oscar 11 01 Oct 12:31:17 12:34:36 22° 293° (WNW) 12:37:55 145.825 FM, Beacon 2401.500 USB
HO-68 01 Oct 12:40:37 12:45:44 22° 304° (WNW) 12:50:51 435.675 MHz FM
Oscar 16 01 Oct 12:42:18 12:42:52 10° 57° (ENE) 12:43:26 437.025 USB, Beacon 2401.1428
FUNcube-1 01 Oct 12:55:50 12:59:46 29° 291° (WNW) 13:03:37 145.950 - 145.970 MHz USB
PCSat 01 Oct 12:56:57 12:57:58 11° 325° (NW) 12:58:59 145.825 MHz
